EW5053 Weather Reports


Display with metric or nautical units.
time (UTC)temp
F
wind
direction
speed
MPH
gust
MPH
rain 1hr
in
rain 24hr
in
rain mn
in
humidity
%
barometer
mb
20260507132003 52 326 3.0 5.0 0.00 0.00 0.00 64 1015.0
20260507131504 51 353 3.0 5.0 0.00 0.00 0.00 64 1015.0
20260507131004 51 357 3.0 5.0 0.00 0.00 0.00 64 1015.0
20260507130504 51 349 3.0 4.0 0.00 0.00 0.00 65 1014.9
20260507130004 51 354 3.0 5.0 0.00 0.00 0.00 67 1015.0
20260507125505 50 340 0.0 6.0 0.00 0.00 0.00 68 1015.0
20260507125004 49 327 2.0 6.0 0.00 0.00 0.00 69 1015.1
20260507123503 48 355 4.0 5.0 0.00 0.00 0.00 74 1015.3
20260507123004 47 335 3.0 5.0 0.00 0.00 0.00 75 1015.3
20260507122504 47 325 3.0 5.0 0.00 0.00 0.00 76 1015.4
20260507122005 46 318 2.0 5.0 0.00 0.00 0.00 78 1015.4
20260507121504 45 315 2.0 5.0 0.00 0.00 0.00 86 1015.4
20260507121005 45 322 1.0 5.0 0.00 0.00 0.00 88 1015.2
20260507120005 44 320 3.0 5.0 0.00 0.00 0.00 94 1015.2
20260507115504 44 325 2.0 5.0 0.00 0.00 0.00 96 1015.4
20260507115004 43 314 1.0 4.0 0.00 0.00 0.00 97 1015.0
20260507114504 43 307 3.0 4.0 0.00 0.00 0.00 98 1015.1
20260507114004 42 304 2.0 3.0 0.00 0.00 0.00 98 1015.1
20260507113504 41 293 2.0 2.0 0.00 0.00 0.00 98 1015.0
20260507112503 41 261 0.0 1.0 0.00 0.00 0.00 97 1014.9
20260507112004 40 261 0.0 1.0 0.00 0.00 0.00 97 1014.8
20260507111506 40 0 0.0 0.0 0.00 0.00 0.00 97 1014.7
20260507111004 40 0 0.0 0.0 0.00 0.00 0.00 96 1014.7
20260507110504 40 0 0.0 0.0 0.00 0.00 0.00 96 1014.7
20260507110004 40 0 0.0 0.0 0.00 0.00 0.00 96 1014.7
20260507105504 40 0 0.0 0.0 0.00 0.00 0.00 96 1014.5
20260507105004 40 0 0.0 0.0 0.00 0.00 0.00 95 1014.6
20260507104504 40 0 0.0 0.0 0.00 0.00 0.00 95 1014.4
20260507104004 40 0 0.0 0.0 0.00 0.00 0.00 95 1014.4
20260507103504 40 0 0.0 0.0 0.00 0.00 0.00 95 1014.3
20260507103004 40 0 0.0 0.0 0.00 0.00 0.00 95 1014.3
20260507102006 40 171 0.0 1.0 0.00 0.00 0.00 95 1014.4
20260507101504 41 0 0.0 0.0 0.00 0.00 0.00 95 1014.7
20260507101003 41 0 0.0 0.0 0.00 0.00 0.00 96 1014.5
20260507100504 41 0 0.0 0.0 0.00 0.00 0.00 96 1014.3
20260507100005 41 0 0.0 0.0 0.00 0.00 0.00 96 1014.4
20260507095505 41 0 0.0 0.0 0.00 0.00 0.00 96 1014.3
20260507094505 40 317 0.0 2.0 0.00 0.00 0.00 95 1014.5
20260507094004 40 261 0.0 1.0 0.00 0.00 0.00 95 1014.3
20260507093504 40 0 0.0 0.0 0.00 0.00 0.00 95 1014.3
20260507093005 40 0 0.0 0.0 0.00 0.00 0.00 95 1014.3
20260507092004 41 0 0.0 0.0 0.00 0.01 0.00 96 1014.1
20260507091504 41 0 0.0 0.0 0.00 0.01 0.00 96 1014.1
20260507091005 41 0 0.0 0.0 0.00 0.01 0.00 96 1014.3
20260507090504 41 0 0.0 0.0 0.00 0.01 0.00 96 1014.3
20260507090004 41 0 0.0 0.0 0.00 0.01 0.00 96 1014.2
20260507085504 41 325 0.0 1.0 0.00 0.01 0.00 96 1014.1
20260507085004 41 325 0.0 1.0 0.00 0.01 0.00 96 1014.3
20260507084505 41 0 0.0 0.0 0.00 0.01 0.00 96 1014.1
20260507084004 41 0 0.0 0.0 0.00 0.01 0.00 96 1014.1
20260507083004 41 0 0.0 0.0 0.00 0.01 0.00 96 1014.2
20260507082505 41 0 0.0 0.0 0.00 0.01 0.00 96 1014.0
20260507082005 41 0 0.0 0.0 0.00 0.01 0.00 96 1013.9
20260507081004 41 0 0.0 0.0 0.00 0.01 0.00 96 1014.1
20260507080504 41 0 0.0 0.0 0.00 0.01 0.00 96 1014.2
20260507080004 41 0 0.0 0.0 0.00 0.01 0.00 96 1013.9
20260507075503 42 0 0.0 0.0 0.00 0.02 0.00 96 1013.9
20260507075004 42 0 0.0 0.0 0.00 0.02 0.00 96 1014.0
20260507074504 42 0 0.0 0.0 0.00 0.03 0.00 96 1014.0
20260507074004 42 0 0.0 0.0 0.00 0.05 0.00 96 1014.1
20260507073504 42 0 0.0 0.0 0.00 0.08 0.00 96 1014.3
20260507073004 42 0 0.0 0.0 0.00 0.09 0.00 96 1014.0
20260507072504 42 0 0.0 0.0 0.00 0.10 0.00 96 1014.2
20260507071505 42 0 0.0 0.0 0.00 0.12 0.00 96 1014.1
20260507071004 42 0 0.0 0.0 0.00 0.12 0.00 96 1014.0
20260507070504 42 0 0.0 0.0 0.00 0.12 0.00 95 1014.0
20260507070009 42 0 0.0 0.0 0.00 0.12 0.00 95 1014.1
20260507065504 42 0 0.0 0.0 0.00 0.14 0.00 95 1013.9
20260507065005 42 0 0.0 0.0 0.00 0.14 0.00 95 1014.1
20260507064004 42 0 0.0 0.0 0.00 0.18 0.00 95 1014.1
20260507063505 42 0 0.0 0.0 0.00 0.19 0.00 95 1014.1
20260507063004 43 0 0.0 0.0 0.00 0.20 0.00 95 1014.2
20260507062505 43 0 0.0 0.0 0.00 0.21 0.00 94 1014.2
20260507062004 43 0 0.0 0.0 0.00 0.23 0.00 94 1014.0
20260507061504 43 0 0.0 0.0 0.00 0.24 0.00 94 1014.3
20260507061004 43 0 0.0 0.0 0.00 0.25 0.00 94 1014.2
20260507060004 43 0 0.0 0.0 0.00 0.29 0.00 93 1014.2
20260507055504 43 0 0.0 0.0 0.00 0.31 0.00 93 1014.1
20260507055004 43 0 0.0 0.0 0.00 0.32 0.00 93 1014.2
20260507054004 43 0 0.0 0.0 0.00 0.33 0.00 92 1014.3
20260507053503 44 0 0.0 0.0 0.00 0.34 0.00 92 1014.2
20260507053004 44 0 0.0 0.0 0.00 0.36 0.00 92 1014.2
20260507052505 44 0 0.0 0.0 0.00 0.38 0.00 92 1014.2
20260507052004 44 0 0.0 0.0 0.00 0.38 0.00 92 1014.3
20260507051503 44 0 0.0 0.0 0.00 0.38 0.00 92 1014.1
20260507050504 44 0 0.0 0.0 0.00 0.38 0.00 91 1014.4
20260507050005 44 0 0.0 0.0 0.00 0.38 0.00 91 1014.4
20260507045505 44 0 0.0 0.0 0.00 0.39 0.00 91 1014.4
20260507045004 44 0 0.0 0.0 0.00 0.40 0.00 90 1014.4
20260507044503 44 0 0.0 0.0 0.00 0.41 0.00 89 1014.7
20260507044004 45 0 0.0 0.0 0.00 0.42 0.00 89 1014.7
20260507043505 45 0 0.0 0.0 0.00 0.42 0.00 89 1014.7
20260507043004 45 0 0.0 0.0 0.00 0.42 0.00 88 1014.6
20260507042504 45 0 0.0 0.0 0.00 0.42 0.00 88 1014.6
20260507042005 45 217 0.0 1.0 0.00 0.43 0.00 87 1014.5
20260507041004 46 217 0.0 1.0 0.00 0.43 0.00 81 1014.4
20260507040505 46 0 0.0 0.0 0.00 0.43 0.00 80 1014.3
20260507035503 46 0 0.0 0.0 0.00 0.43 0.43 79 1014.4
20260507035004 47 0 0.0 0.0 0.00 0.44 0.43 79 1014.3
20260507034505 47 0 0.0 0.0 0.00 0.44 0.43 79 1014.2
20260507034004 47 0 0.0 0.0 0.00 0.44 0.43 78 1014.5
20260507033504 47 0 0.0 0.0 0.00 0.44 0.43 78 1014.5
20260507033005 47 0 0.0 0.0 0.00 0.44 0.43 77 1014.6
20260507032504 48 0 0.0 0.0 0.00 0.44 0.43 77 1014.6
20260507032004 48 0 0.0 0.0 0.00 0.44 0.43 76 1014.3
20260507031004 48 0 0.0 0.0 0.00 0.46 0.43 75 1014.6
20260507030504 49 0 0.0 0.0 0.00 0.47 0.43 75 1014.5
20260507030005 49 0 0.0 0.0 0.00 0.52 0.43 75 1014.5
20260507025504 49 0 0.0 0.0 0.00 0.53 0.43 75 1014.4
20260507024004 50 0 0.0 0.0 0.00 0.56 0.43 74 1014.6
20260507023504 51 0 0.0 0.0 0.00 0.56 0.43 73 1014.6
20260507022504 52 0 0.0 0.0 0.00 0.56 0.43 71 1014.5
20260507022004 52 0 0.0 0.0 0.00 0.57 0.43 71 1014.2
20260507021504 52 0 0.0 0.0 0.00 0.57 0.43 70 1014.4
20260507021005 53 0 0.0 0.0 0.00 0.57 0.43 68 1014.5
20260507020503 53 0 0.0 0.0 0.00 0.57 0.43 66 1014.3
20260507020004 53 0 0.0 0.0 0.00 0.57 0.43 66 1014.3
20260507015504 53 0 0.0 0.0 0.00 0.58 0.43 66 1014.3
20260507015004 53 261 0.0 1.0 0.00 0.58 0.43 66 1014.3
20260507014504 53 261 0.0 1.0 0.00 0.58 0.43 66 1014.4
20260507013505 54 324 0.0 1.0 0.00 0.60 0.43 64 1014.1
20260507012504 54 334 0.0 3.0 0.00 0.60 0.43 64 1014.1
20260507012005 54 342 0.0 3.0 0.00 0.60 0.43 62 1013.9
20260507011503 54 324 1.0 4.0 0.00 0.60 0.43 58 1013.7
20260507010504 55 317 3.0 4.0 0.00 0.60 0.43 58 1013.9
20260507010004 55 335 0.0 1.0 0.00 0.60 0.43 59 1013.7
20260507005504 55 351 0.0 1.0 0.00 0.60 0.43 57 1013.9
20260507004505 56 327 0.0 5.0 0.00 0.60 0.43 55 1013.9
20260507004003 56 326 0.0 5.0 0.00 0.60 0.43 56 1013.9
20260507003504 56 335 4.0 5.0 0.00 0.60 0.43 55 1013.6
20260507003005 56 329 1.0 3.0 0.00 0.60 0.43 55 1013.8
20260507002505 56 297 1.0 3.0 0.00 0.61 0.43 55 1013.6
20260507002005 57 289 1.0 2.0 0.00 0.62 0.43 54 1013.8
20260507001504 57 319 1.0 5.0 0.00 0.62 0.43 55 1013.6
20260507001007 57 325 1.0 5.0 0.00 0.63 0.43 54 1013.6
20260507000504 57 321 2.0 5.0 0.00 0.63 0.43 54 1013.7
20260507000007 58 327 2.0 5.0 0.00 0.64 0.43 55 1013.5
20260506235503 58 323 1.0 7.0 0.00 0.64 0.43 56 1013.3
20260506235004 58 322 0.0 7.0 0.00 0.64 0.43 55 1013.3
20260506234504 58 328 5.0 7.0 0.00 0.65 0.43 54 1013.3
20260506234004 57 324 3.0 6.0 0.00 0.66 0.43 54 1013.0
20260506233005 58 350 1.0 9.0 0.00 0.67 0.43 55 1013.2
20260506232004 58 348 5.0 10.0 0.00 0.67 0.43 54 1012.7
20260506231504 58 15 4.0 7.0 0.00 0.68 0.43 54 1012.7
20260506230503 58 329 3.0 6.0 0.00 0.68 0.43 54 1012.5
20260506230004 58 343 5.0 6.0 0.00 0.68 0.43 53 1013.0
20260506225505 58 344 1.0 6.0 0.00 0.68 0.43 54 1012.7
20260506225004 58 339 3.0 7.0 0.00 0.68 0.43 54 1012.7
20260506224504 58 346 2.0 9.0 0.00 0.68 0.43 51 1012.7
20260506224004 58 337 3.0 9.0 0.00 0.68 0.43 52 1013.2
20260506223503 58 339 3.0 9.0 0.00 0.68 0.43 53 1013.2
20260506223005 58 351 2.0 8.0 0.00 0.68 0.43 49 1013.0
20260506222504 59 343 3.0 8.0 0.00 0.68 0.43 49 1013.0
20260506222005 59 329 3.0 7.0 0.00 0.68 0.43 52 1013.0
20260506221504 59 321 3.0 8.0 0.00 0.68 0.43 52 1012.9
20260506221004 59 319 4.0 8.0 0.00 0.68 0.43 54 1013.0
20260506220504 59 328 5.0 8.0 0.00 0.68 0.43 52 1013.3
20260506220004 59 329 5.0 8.0 0.00 0.68 0.43 53 1013.4
20260506215505 60 340 5.0 7.0 0.00 0.69 0.43 53 1013.3
20260506215004 60 349 3.0 7.0 0.00 0.69 0.43 54 1013.1
20260506214504 59 345 3.0 5.0 0.00 0.70 0.43 54 1013.0
20260506214004 59 345 5.0 5.0 0.00 0.70 0.43 54 1013.1
20260506213504 60 339 4.0 8.0 0.00 0.70 0.43 53 1013.0
20260506213004 60 328 3.0 8.0 0.00 0.70 0.43 52 1012.8
20260506212504 60 314 4.0 8.0 0.00 0.71 0.43 52 1012.8
20260506212004 60 302 4.0 8.0 0.00 0.71 0.43 49 1012.6
20260506211004 60 317 3.0 6.0 0.00 0.74 0.43 49 1012.6
20260506210504 60 309 4.0 6.0 0.00 0.74 0.43 48 1012.7
20260506210004 61 316 3.0 6.0 0.00 0.74 0.43 53 1012.6
20260506205503 61 333 2.0 7.0 0.00 0.74 0.43 49 1012.7
20260506205004 61 327 1.0 7.0 0.00 0.74 0.43 50 1012.5
20260506204504 61 327 5.0 9.0 0.00 0.74 0.43 49 1012.7
20260506204004 61 328 6.0 9.0 0.00 0.74 0.43 50 1012.7
20260506203504 62 335 3.0 9.0 0.00 0.74 0.43 51 1012.7
20260506203004 62 342 1.0 7.0 0.00 0.74 0.43 50 1012.6
20260506202504 62 352 5.0 7.0 0.00 0.74 0.43 46 1012.6
20260506201504 62 16 2.0 6.0 0.00 0.74 0.43 51 1012.6
20260506201004 62 21 3.0 6.0 0.00 0.74 0.43 48 1012.2
20260506200004 62 65 3.0 7.0 0.00 0.74 0.43 50 1012.9
20260506195504 62 126 6.0 7.0 0.00 0.74 0.43 49 1012.8
20260506195004 62 57 1.0 5.0 0.00 0.74 0.43 49 1012.9
20260506194504 63 22 1.0 6.0 0.00 0.74 0.43 50 1012.9
20260506194004 62 352 4.0 6.0 0.00 0.74 0.43 47 1012.9
20260506193504 62 333 3.0 8.0 0.00 0.74 0.43 53 1012.4
20260506193005 62 313 2.0 8.0 0.00 0.74 0.43 47 1012.5
20260506192504 62 312 4.0 8.0 0.00 0.74 0.43 47 1012.5
20260506191504 62 54 5.0 7.0 0.00 0.74 0.43 52 1012.5
20260506191009 62 15 4.0 6.0 0.00 0.74 0.43 54 1012.4
20260506190504 62 2 3.0 7.0 0.00 0.74 0.43 56 1012.4
20260506190006 61 6 2.0 9.0 0.00 0.74 0.43 53 1012.4
20260506185505 61 18 5.0 9.0 0.00 0.74 0.43 54 1012.2
20260506185004 61 358 1.0 7.0 0.00 0.74 0.43 55 1012.4
20260506184004 61 29 4.0 6.0 0.00 0.74 0.43 58 1012.3
20260506183505 61 26 2.0 7.0 0.00 0.74 0.43 57 1012.5
20260506183004 61 10 4.0 7.0 0.00 0.74 0.43 56 1012.4
20260506182004 60 95 3.0 9.0 0.00 0.74 0.43 56 1012.2
20260506181504 60 52 3.0 9.0 0.00 0.74 0.43 55 1012.2
20260506181005 60 342 2.0 11.0 0.00 0.74 0.43 55 1012.4
20260506180505 60 346 5.0 11.0 0.00 0.74 0.43 54 1012.6
20260506180005 60 342 2.0 7.0 0.00 0.74 0.43 57 1012.4
20260506175004 60 1 4.0 7.0 0.00 0.74 0.43 56 1012.7
20260506174504 60 10 3.0 7.0 0.00 0.74 0.43 55 1012.6
20260506174003 60 79 2.0 7.0 0.00 0.74 0.43 58 1012.7
20260506173504 60 67 3.0 7.0 0.00 0.74 0.43 57 1012.7
20260506173004 60 18 6.0 7.0 0.00 0.74 0.43 59 1012.7
20260506172505 59 330 3.0 5.0 0.00 0.74 0.43 56 1012.9
20260506172004 60 219 3.0 7.0 0.00 0.74 0.43 61 1012.9
20260506171504 59 277 3.0 7.0 0.00 0.74 0.43 58 1012.8
20260506171005 59 352 6.0 7.0 0.00 0.74 0.43 57 1013.0
20260506170503 59 346 3.0 10.0 0.00 0.74 0.43 63 1012.9
20260506170004 59 357 5.0 10.0 0.00 0.74 0.43 57 1012.9
20260506165504 59 3 3.0 8.0 0.00 0.74 0.43 62 1013.1
20260506165005 59 340 4.0 8.0 0.00 0.74 0.43 63 1012.9
20260506164504 58 357 4.0 8.0 0.00 0.74 0.43 60 1013.2
20260506164005 58 8 3.0 6.0 0.00 0.74 0.43 63 1013.1
20260506163504 58 357 3.0 8.0 0.00 0.74 0.43 59 1013.0
20260506163005 58 354 1.0 8.0 0.00 0.74 0.43 64 1013.0
20260506162505 58 2 3.0 8.0 0.00 0.74 0.43 65 1012.7
20260506162004 58 349 3.0 7.0 0.00 0.74 0.43 64 1012.6
20260506161504 57 335 3.0 9.0 0.00 0.74 0.43 64 1012.7
20260506160005 58 347 2.0 5.0 0.00 0.74 0.43 69 1013.0
20260506155506 57 39 3.0 9.0 0.00 0.74 0.43 66 1012.9
20260506154504 57 111 3.0 7.0 0.00 0.74 0.43 66 1012.9
20260506154004 56 62 3.0 7.0 0.00 0.74 0.43 67 1012.8
20260506153504 56 6 6.0 7.0 0.00 0.74 0.43 66 1012.6
20260506153005 56 11 3.0 7.0 0.00 0.74 0.43 65 1012.5
20260506152504 56 54 4.0 7.0 0.00 0.74 0.43 67 1012.5
20260506152004 56 7 3.0 9.0 0.00 0.74 0.43 70 1012.5
20260506151504 55 347 3.0 9.0 0.00 0.74 0.43 68 1012.4
20260506150005 55 13 3.0 5.0 0.00 0.74 0.43 71 1012.2
20260506145505 55 19 3.0 5.0 0.00 0.74 0.43 69 1012.2
20260506145005 55 43 4.0 6.0 0.00 0.74 0.43 73 1012.1
20260506144005 54 27 1.0 7.0 0.00 0.74 0.43 77 1012.0
20260506142504 54 46 3.0 5.0 0.00 0.74 0.43 78 1011.6
20260506142004 54 55 3.0 5.0 0.00 0.74 0.43 80 1011.7
20260506141504 53 9 3.0 9.0 0.00 0.74 0.43 81 1011.6
20260506140503 52 337 2.0 8.0 0.00 0.74 0.43 81 1011.5
20260506140004 52 353 2.0 8.0 0.00 0.74 0.43 82 1011.3
20260506135504 51 9 3.0 7.0 0.00 0.74 0.43 80 1011.5
20260506135004 51 4 5.0 7.0 0.00 0.74 0.43 83 1011.5
20260506134505 51 350 1.0 5.0 0.00 0.74 0.43 82 1011.5
20260506134004 51 337 3.0 7.0 0.00 0.74 0.43 83 1011.5
20260506133504 51 346 5.0 7.0 0.00 0.74 0.43 84 1011.7
20260506133004 50 352 2.0 6.0 0.00 0.74 0.43 85 1011.2